Weather Roundup
Issued by NWS

Home | Current Version | Previous Version | Graphics & Text | Print | Product List | Glossary Off
Versions: 1 2 3 4 5 6 7 8 9 10 11 12 13 14 15 16 17 18 19 20 21 22 23 24 25 26 27 28 29 30 31 32 33 34 35 36 37 38 39 40 41 42 43 44 45 46 47 48 49 50

000
NZUS93 KARX 190810
HRRWXR

CURRENT HOURLY OBSERVATIONS ACROSS
MUCH OF THE UPPER MISSISSIPPI VALLEY
NATIONAL WEATHER SERVICE LA CROSSE WI
300 AM CDT SUN OCT 19 2014


...SOUTHEAST MINNESOTA...


CITY           SKY/WX    TMP DP  RH WIND       PRES   REMARKS
ROCHESTER      PTCLDY    36  32  85 S8        30.10F WCI  30
ROCHESTER/MAYO FAIR      38  31  76 S6        30.10S WCI  34
WINONA         CLEAR     36  34  93 CALM      30.12F
AUSTIN         MOCLDY    36  32  87 S6        30.10F WCI  31
ALBERT LEA     PTCLDY    43  37  81 S7        30.09S
DODGE CENTER   MOCLDY    37  36  93 S7        30.09S WCI  32
PRESTON        PTCLDY    37  33  85 SW7       30.11F WCI  31
OWATONNA       PTCLDY    43  36  75 S10       30.08S
FARIBAULT      PTCLDY    41  36  81 S6        30.08S
$$

...ELSEWHERE IN MINNESOTA...


CITY           SKY/WX    TMP DP  RH WIND       PRES   REMARKS
MINNEAPOLIS    PTCLDY    41  35  79 CALM      30.07S
INTNL FALLS    CLOUDY    35  32  88 VRB5      29.91F WCI  31
DULUTH         PTCLDY    36  32  85 S6        29.99F WCI  31
RED WING       PTCLDY    36  34  93 CALM      30.09S
REDWOOD FALLS  MOCLDY    42  37  82 S12       30.00F
MANKATO        PTCLDY    41  34  75 S8        30.07S
WORTHINGTON    PTCLDY    45  37  76 S13G20    30.04F
FAIRMONT       PTCLDY    43  25  49 S12       30.07F
$$

...SOUTHWEST WISCONSIN...


CITY           SKY/WX    TMP DP  RH WIND       PRES   REMARKS
LA CROSSE      CLEAR     36  33  89 CALM      30.13R
PRAIRIE DU CHI CLEAR     34  32  94 SE3       30.14F
BOSCOBEL       FOG       33  31  92 CALM      30.16F VSB<1/4
LONE ROCK      FOG       33  29  85 E3        30.16F VSB 3/4
PLATTEVILLE    CLEAR     35  33  94 CALM      30.16F
FORT MC COY    CLEAR     26  26  98 CALM      30.13S
CAMP DOUGLAS   CLEAR     29  29 100 VRB2      30.12F
VIROQUA        FAIR      40  33  76 S6        30.12S
WIS DELLS      CLEAR     32  30  94 CALM      30.14S
$$

...ELSEWHERE IN WISCONSIN...


CITY           SKY/WX    TMP DP  RH WIND       PRES   REMARKS
MILWAUKEE      PTCLDY    38  33  82 SW5       30.17F WCI  34
MADISON        PTCLDY    32  30  92 CALM      30.15F
GREEN BAY      PTCLDY    32  31  96 CALM      30.14F
EAU CLAIRE     FOG       31  30  96 CALM      30.09F VSB 1/2
BLACK RVR FLS  FAIR      25  25 100 CALM      30.12S
MEDFORD        CLEAR     31  28  86 S5        30.09S WCI  27
WAUSAU         PTCLDY    30  28  92 E5        30.10F WCI  25
WIS RAPIDS     CLEAR     30  28  92 CALM      30.13F
MARSHFIELD     CLEAR     33  29  85 S3        30.10F
RICE LAKE      CLEAR     33  31  96 CALM      30.09F
$$

...NORTHEAST IOWA...


CITY           SKY/WX    TMP DP  RH WIND       PRES   REMARKS
DECORAH        CLEAR     37  34  87 S5        30.12S WCI  34
MASON CITY     PTCLDY    36  34  92 S7        30.12F WCI  30
CHARLES CITY   PTCLDY    37  34  87 S6        30.13S WCI  33
OELWEIN        CLEAR     36  34  93 S7        30.14S WCI  30
$$

...ELSEWHERE IN IOWA...


CITY           SKY/WX    TMP DP  RH WIND       PRES   REMARKS
DES MOINES     CLEAR     42  38  85 SW6       30.17R
IOWA CITY      CLEAR     36  35  96 CALM      30.18F
FORT DODGE     CLEAR     41  36  81 SW3       30.13S
$$

...NORTHERN ILLINOIS...


CITY           SKY/WX    TMP DP  RH WIND       PRES   REMARKS
CHICAGO-OHARE  PTCLDY    35  33  92 W5        30.19S WCI  31
CHICAGO-MIDWAY PTCLDY    39  35  86 SW3       30.20S
MOLINE         CLEAR     34  32  92 CALM      30.19S
ROCKFORD       PTCLDY    33  31  92 SE3       30.21S
PEORIA         CLEAR     41  38  89 CALM      30.21F
$$

NOTE: "FAIR" INDICATES FEW OR NO CLOUDS BELOW 12,000 FEET WITH NO
SIGNIFICANT WEATHER AND/OR OBSTRUCTIONS TO VISIBILITY. WIND
SPEEDS ARE IN MILES-PER-HOUR.



USA.gov is the U.S. government's official web portal to all federal, state and local government web resources and services.